Location: Jardin des Dains
(18.0813°N, 63.0632°W)
Time: 19:03:32
(UTC+00:00)

Daily predictions for brighter satellites

Satellite Brightness Start Highest point End
(mag) Time Altitude Azimuth Time Altitude Azimuth Time Altitude Azimuth
Cosmos 2285 Rocket 4.4 22:28:23 10° N 22:34:27 44° ENE 22:40:31 10° SE
STARLINK-60 3.3 22:31:59 10° NNW 22:35:08 45° NE 22:38:18 10° SE
Cosmos 1869 Rocket 4.1 22:33:23 10° SSE 22:37:28 37° E 22:41:30 10° NNE
ATLAS 2AS CENTAUR R/B 4.0 22:31:48 10° SSE 22:37:39 24° ESE 22:43:41 10° ENE
Okean-O 2.8 22:35:31 10° S 22:39:56 81° WSW 22:44:22 10° NNW
SJ 16-02 3.2 22:40:18 10° NE 22:41:40 11° ENE 22:43:03 10° E
NOSS 2-2 (D) 3.1 22:40:44 10° SSW 22:44:44 86° ESE 22:48:19 10° NNE
Cosmos 2242 Rocket 3.8 22:43:23 10° N 22:47:50 53° E 22:52:18 10° SSE
COSMOS 2487 3.5 22:47:11 10° NNE 22:50:01 24° ENE 22:52:50 10° SE
NOAA 11 4.3 22:46:06 10° SSE 22:51:24 56° ENE 22:56:42 10° N
YAOGAN 1 2.7 22:47:25 10° SSE 22:51:36 51° ENE 22:55:47 10° N
Aureole 1 4.2 22:50:23 10° SSW 22:53:34 84° WNW 22:56:33 10° NNE
H-2A R/B 3.9 22:53:22 11° ENE 22:53:57 11° ENE 22:55:28 10° NE
ADEOS Rocket 3.6 22:48:29 10° NNE 22:56:09 86° WNW 23:03:12 10° SSW
Centaur Rocket 1.1 22:55:45 10° W 22:57:41 86° S 22:59:05 18° E
Cosmos 1656 4.3 22:57:00 10° SSE 23:01:49 33° ESE 23:06:42 10° NE
Skynet4D Del rocket 4.5 22:59:48 10° WNW 23:05:20 43° NNE 23:10:00 17° ENE
USA 267 4.3 23:03:07 14° ENE 23:07:14 25° SE 23:12:23 10° S
Cosmos 405 3.3 23:05:38 10° N 23:09:00 42° E 23:12:23 10° SSE
FALCON 9 R/B 3.6 22:50:17 10° WNW 23:12:02 57° NNE 23:16:32 20° E
FALCON 9 DEB 3.1 23:10:00 10° NNW 23:13:23 58° NE 23:15:29 21° SE
Cosmos 1697 Rocket 3.8 23:09:27 10° SSE 23:13:33 21° ESE 23:14:24 20° E
Cosmos 1814 Rocket 4.2 23:11:36 10° SSW 23:16:42 71° WNW 23:21:47 10° N
SWIFT 4.3 23:14:52 10° SSW 23:17:18 15° SSE 23:18:34 13° SE
Cosmos 841 Rocket 4.2 23:15:23 10° SSW 23:20:23 55° WNW 23:25:25 10° N
Cosmos 44 4.4 23:17:42 10° NW 23:22:05 45° WSW 23:26:41 10° S
Star 48B 4.5 23:20:30 10° WNW 23:23:19 63° N 23:25:19 28° E
GPS 2-18 Rocket1 3.3 23:24:26 10° W 23:28:18 58° N 23:29:27 39° NE
Intercosmos 24 4.5 23:25:42 10° SSE 23:29:24 42° E 23:34:20 10° NNE
Atlas 2A Centaur Rocket 2.2 23:25:54 10° WNW 23:29:38 30° N 23:29:49 29° NNE
Cosmos 1500 3.0 23:27:17 10° S 23:31:03 67° E 23:34:51 10° NNE
Okean 1 3.3 23:32:24 10° N 23:36:22 82° W 23:40:18 10° S
Cosmos 1898 Rocket 3.4 23:32:26 10° N 23:37:34 65° ENE 23:42:43 10° SSE
CZ-2C R/B 3.6 23:41:18 10° NNE 23:46:01 73° E 23:50:46 10° S
ARGOS 4.5 23:50:06 24° NNE 23:50:06 24° NNE 23:52:33 10° N
Ariane Rocket 2.8 23:43:15 10° SSE 23:48:19 71° ENE 23:53:23 10° N
SL-24 DEB 4.1 23:44:20 10° SSE 23:49:02 71° E 23:53:40 10° N
MOS 1 4.4 23:51:06 50° E 23:51:31 51° ENE 23:56:58 10° N
Nadezhda 4 Rocket 3.9 23:45:32 10° N 23:51:52 81° E 23:58:11 10° S
